FW6250 Weather Reports


time (UTC)temp
C
wind
direction
speed
KPH
gust
KPH
rain 1hr
cm
rain 24hr
cm
rain mn
cm
humidity
%
barometer
mb
20260510104034 -17 0.0 0.0 0.00 0.48 0.00 1011.5
20260510103533 -17 0.0 0.0 0.00 0.48 0.00 1011.3
20260510103043 -17 0.0 0.0 0.00 0.48 0.00 1011.4
20260510102533 -17 0.0 0.0 0.00 0.48 0.00 1011.3
20260510102033 -17 0.0 0.0 0.00 0.48 0.00 1011.2
20260510101545 -17 0.0 0.0 0.00 0.48 0.00 1011.1
20260510101032 -17 0.0 0.0 0.00 0.48 0.00 1011.0
20260510100534 -17 0.0 0.0 0.00 0.48 0.00 1010.9
20260510100043 -17 0.0 0.0 0.00 0.48 0.00 1010.7
20260510095532 -17 0.0 0.0 0.00 0.48 0.00 1010.6
20260510095031 -17 0.0 0.0 0.00 0.48 0.00 1010.5
20260510094540 -17 0.0 0.0 0.00 0.48 0.00 1010.5
20260510094032 -17 0.0 0.0 0.00 0.48 0.00 1010.5
20260510093532 -17 0.0 0.0 0.00 0.48 0.00 1010.2
20260510093043 -17 0.0 0.0 0.00 0.48 0.00 1009.9
20260510092533 -17 0.0 0.0 0.00 0.48 0.00 1010.0
20260510092032 -17 0.0 0.0 0.00 0.48 0.00 1010.0
20260510091539 -17 0.0 0.0 0.00 0.48 0.00 1010.0
20260510091032 -17 0.0 0.0 0.00 0.48 0.00 1010.0
20260510090532 -17 0.0 0.0 0.00 0.48 0.00 1010.0
20260510090044 -17 0.0 0.0 0.00 0.48 0.00 1010.0
20260510085533 -17 0.0 0.0 0.00 0.53 0.00 1009.9
20260510085034 -17 0.0 0.0 0.00 0.53 0.00 1009.8
20260510084543 -17 0.0 0.0 0.00 0.53 0.00 1009.6
20260510084032 -17 0.0 0.0 0.00 0.53 0.00 1009.6
20260510083532 -17 0.0 0.0 0.00 0.53 0.00 1009.8
20260510083045 -17 0.0 0.0 0.00 0.53 0.00 1009.8
20260510082532 -17 0.0 0.0 0.00 0.53 0.00 1009.7
20260510082033 8 0.0 0.0 0.00 0.53 0.00 93 1009.8
20260510081543 8 1.6 3.2 0.00 0.53 0.00 93 1009.4
20260510081032 8 0 1.6 6.4 0.00 0.53 0.00 93 1009.7
20260510080534 8 56 3.2 6.4 0.00 0.53 0.00 93 1009.7
20260510080039 8 72 0.0 3.2 0.00 0.53 0.00 94 1009.7
20260510075532 8 124 0.0 3.2 0.00 0.61 0.00 93 1009.7
20260510075032 8 0 0.0 1.6 0.00 0.61 0.00 93 1009.4
20260510074541 8 124 0.0 3.2 0.00 0.61 0.00 93 1009.6
20260510074033 8 0 0.0 3.2 0.00 0.61 0.00 92 1009.7
20260510073534 8 0 0.0 3.2 0.00 0.61 0.00 92 1009.7
20260510073045 8 0 0.0 3.2 0.00 0.61 0.00 92 1009.9
20260510072532 8 124 0.0 3.2 0.00 0.61 0.00 91 1010.0
20260510072032 8 0 0.0 3.2 0.00 0.61 0.00 91 1010.0
20260510071543 8 0 0.0 3.2 0.00 0.61 0.00 91 1010.4
20260510071032 9 0 0.0 0.0 0.00 0.61 0.00 90 1010.4
20260510070532 9 0 0.0 0.0 0.00 0.61 0.00 90 1010.5
20260510070042 9 0 0.0 1.6 0.00 0.61 0.00 90 1010.5
20260510065533 9 0 0.0 3.2 0.00 0.61 0.00 90 1010.6
20260510065032 9 0 0.0 3.2 0.00 0.61 0.00 89 1010.7
20260510064544 10 0 0.0 3.2 0.00 0.61 0.00 89 1010.6
20260510064032 10 188 0.0 4.8 0.00 0.61 0.00 88 1010.7
20260510063532 10 264 3.2 9.7 0.00 0.61 0.00 88 1010.7
20260510063040 10 312 1.6 9.7 0.00 0.61 0.00 88 1010.8
20260510062533 10 240 3.2 12.9 0.00 0.61 0.00 88 1010.7
20260510062032 9 261 3.2 12.9 0.00 0.61 0.00 89 1010.7
20260510061543 9 51 3.2 12.9 0.00 0.61 0.00 90 1010.6
20260510061032 9 269 1.6 8.0 0.00 0.61 0.00 92 1010.6
20260510060532 8 323 1.6 8.0 0.00 0.61 0.00 93 1010.5
20260510060050 8 273 1.6 8.0 0.00 0.61 0.00 95 1010.4
20260510055532 7 267 1.6 8.0 0.00 0.61 0.00 95 1010.4
20260510055032 7 181 0.0 3.2 0.00 0.61 0.00 94 1010.6
20260510054539 7 0 0.0 3.2 0.00 0.61 0.00 94 1010.3
20260510054032 7 85 0.0 3.2 0.00 0.61 0.00 93 1010.2
20260510053533 7 93 0.0 3.2 0.00 0.61 0.00 93 1010.1
20260510053043 7 0 0.0 3.2 0.00 0.61 0.00 93 1010.0
20260510052532 7 0 0.0 1.6 0.00 0.61 0.00 92 1010.0
20260510052032 7 0 0.0 1.6 0.00 0.61 0.00 92 1010.3
20260510051604 8 0 0.0 3.2 0.00 0.61 0.00 92 1010.2
20260510051031 8 82 1.6 3.2 0.00 0.61 0.00 92 1010.3
20260510050532 8 108 0.0 3.2 0.00 0.61 0.00 92 1010.1
20260510050043 8 0 0.0 1.6 0.00 0.61 0.00 92 1010.2
20260510045531 8 0 0.0 3.2 0.00 0.61 0.00 92 1010.2
20260510045029 8 0 0.0 3.2 0.00 0.61 0.00 92 1010.2
20260510044542 8 0 0.0 3.2 0.00 0.61 0.00 91 1010.3
20260510044035 8 0 0.0 1.6 0.00 0.61 0.00 91 1010.3
20260510043532 8 0 0.0 1.6 0.00 0.61 0.00 91 1010.0
20260510043107 8 108 0.0 3.2 0.00 0.61 0.00 90 1010.0
20260510042532 8 0 0.0 3.2 0.00 0.61 0.00 90 1009.9
20260510042030 8 0 0.0 3.2 0.00 0.61 0.00 90 1009.9
20260510041550 8 0 1.6 3.2 0.00 0.61 0.00 89 1009.8
20260510041032 8 145 0.0 1.6 0.00 0.61 0.00 89 1009.9
20260510040532 9 145 0.0 4.8 0.00 0.61 0.00 89 1009.8
20260510040044 9 0 1.6 4.8 0.00 0.61 0.00 88 1009.9
20260510035532 9 0 0.0 4.8 0.00 0.61 0.61 87 1009.7
20260510035034 8 0 0.0 4.8 0.00 0.61 0.61 88 1009.7
20260510034545 8 0 0.0 3.2 0.00 0.61 0.61 88 1009.7
20260510034032 8 0 1.6 3.2 0.00 0.61 0.61 88 1009.7
20260510033533 8 339 1.6 3.2 0.00 0.61 0.61 88 1009.9
20260510033050 8 0 0.0 1.6 0.00 0.61 0.61 88 1009.7
20260510032532 8 279 0.0 3.2 0.00 0.61 0.61 88 1009.7
20260510032032 8 276 0.0 3.2 0.00 0.61 0.61 88 1009.7
20260510031615 8 288 0.0 3.2 0.00 0.61 0.61 88 1009.7
20260510031032 8 300 1.6 4.8 0.00 0.61 0.61 89 1009.8
20260510030532 8 290 1.6 4.8 0.00 0.61 0.61 90 1009.7
20260510030045 8 289 1.6 4.8 0.00 0.61 0.61 90 1009.5
20260510025533 8 294 1.6 3.2 0.00 0.61 0.61 90 1009.5
20260510025034 8 297 1.6 3.2 0.00 0.61 0.61 90 1009.5
20260510024545 8 0 0.0 3.2 0.00 0.61 0.61 90 1009.5
20260510024032 8 0 0.0 3.2 0.00 0.61 0.61 89 1009.4
20260510023532 8 0 0.0 3.2 0.00 0.61 0.61 89 1009.5
20260510023047 8 0 0.0 3.2 0.00 0.61 0.61 89 1009.4
20260510022532 8 0 0.0 3.2 0.00 0.61 0.61 90 1009.6
20260510022032 8 304 0.0 3.2 0.00 0.61 0.61 89 1009.6
20260510021543 8 0 0.0 3.2 0.00 0.61 0.61 90 1009.5
20260510021031 8 0 0.0 3.2 0.00 0.61 0.61 90 1009.6
20260510020531 8 0 0.0 3.2 0.00 0.61 0.61 90 1009.4
20260510020043 8 0 0.0 3.2 0.00 0.61 0.61 90 1009.4
20260510015532 8 0 0.0 1.6 0.00 0.61 0.61 91 1009.4
20260510015032 8 0 0.0 1.6 0.00 0.61 0.61 91 1009.4
20260510014542 8 0 0.0 3.2 0.00 0.61 0.61 91 1009.4
20260510014030 9 0 0.0 3.2 0.00 0.61 0.61 90 1009.5
20260510013530 9 0 0.0 3.2 0.00 0.61 0.61 90 1009.5
20260510013042 9 313 0.0 3.2 0.00 0.61 0.61 90 1009.8
20260510012532 9 313 0.0 3.2 0.00 0.61 0.61 90 1009.7
20260510012032 8 0 0.0 3.2 0.00 0.61 0.61 90 1009.8
20260510011553 8 0 0.0 3.2 0.00 0.61 0.61 91 1009.7
20260510011031 9 0 0.0 3.2 0.00 0.61 0.61 90 1009.6
20260510010532 9 0 0.0 3.2 0.00 0.61 0.61 91 1009.5
20260510010055 9 0 0.0 3.2 0.00 0.61 0.61 90 1009.4
20260510005533 9 0 0.0 3.2 0.00 0.61 0.61 90 1009.6
20260510005029 9 0 0.0 0.0 0.00 0.61 0.61 90 1009.4
20260510004542 9 0 0.0 3.2 0.00 0.61 0.61 90 1009.2
20260510004032 9 0 0.0 3.2 0.00 0.61 0.61 89 1009.3
20260510003532 9 0 0.0 3.2 0.00 0.61 0.61 88 1009.3
20260510003041 9 0 0.0 3.2 0.00 0.61 0.61 89 1009.4
20260510002532 9 0 0.0 3.2 0.00 0.61 0.61 88 1009.4
20260510002032 10 0 0.0 4.8 0.00 0.61 0.61 87 1009.2
20260510001540 9 0 1.6 4.8 0.00 0.61 0.61 86 1009.0
20260510001032 9 281 0.0 3.2 0.00 0.61 0.61 88 1008.9
20260510000532 9 292 0.0 3.2 0.00 0.61 0.61 86 1008.9
20260510000048 9 0 0.0 3.2 0.00 0.61 0.61 87 1008.8
20260509235533 9 292 0.0 3.2 0.00 0.61 0.61 87 1008.8
20260509235033 9 0 0.0 3.2 0.00 0.61 0.61 87 1008.7
20260509234543 10 292 0.0 3.2 0.00 0.61 0.61 87 1008.6
20260509234031 10 0 0.0 3.2 0.00 0.61 0.61 86 1008.5
20260509233528 10 0 0.0 3.2 0.00 0.61 0.61 85 1008.5
20260509233117 10 0 1.6 3.2 0.00 0.61 0.61 84 1008.3
20260509232532 10 269 0.0 3.2 0.00 0.61 0.61 85 1008.2
20260509232032 10 0 0.0 3.2 0.00 0.61 0.61 85 1008.1
20260509231552 10 286 0.0 3.2 0.00 0.61 0.61 86 1008.2
20260509231032 10 276 0.0 3.2 0.00 0.61 0.61 85 1008.1
20260509230531 10 0 0.0 3.2 0.00 0.61 0.61 85 1008.2
20260509230045 10 258 0.0 3.2 0.00 0.61 0.61 84 1008.1
20260509225530 10 313 1.6 3.2 0.00 0.61 0.61 83 1008.1
20260509225029 10 272 1.6 3.2 0.00 0.61 0.61 84 1008.2
20260509224543 10 310 0.0 3.2 0.00 0.61 0.61 85 1008.2
20260509224029 10 302 0.0 3.2 0.00 0.61 0.61 86 1008.2
20260509223532 10 279 0.0 3.2 0.00 0.61 0.61 85 1008.1
20260509223039 10 254 1.6 3.2 0.00 0.61 0.61 85 1008.1
20260509222531 10 0 1.6 3.2 0.00 0.61 0.61 84 1008.2
20260509222035 10 294 1.6 4.8 0.00 0.61 0.61 87 1008.5
20260509221544 10 304 0.0 6.4 0.00 0.61 0.61 86 1008.5
20260509221032 10 319 1.6 6.4 0.00 0.61 0.61 88 1008.6
20260509220530 10 336 0.0 3.2 0.00 0.61 0.61 89 1008.7
20260509220048 10 267 1.6 4.8 0.00 0.61 0.61 90 1008.8
20260509215531 9 281 1.6 4.8 0.00 0.61 0.61 88 1008.6
20260509215033 9 251 1.6 6.4 0.00 0.61 0.61 90 1008.8
20260509214543 9 278 1.6 6.4 0.00 0.61 0.61 90 1008.7
20260509214031 9 147 0.0 3.2 0.00 0.61 0.61 91 1008.7
20260509213531 9 294 0.0 3.2 0.00 0.61 0.61 92 1008.7
20260509213058 9 0 0.0 3.2 0.00 0.61 0.61 92 1008.6
20260509212530 9 5 0.0 3.2 0.00 0.61 0.61 92 1008.7
20260509212032 9 0 0.0 3.2 0.00 0.61 0.61 93 1008.7
20260509211606 8 0 0.0 3.2 0.00 0.61 0.61 92 1008.7
20260509211032 8 0 0.0 3.2 0.00 0.61 0.61 92 1008.6
20260509210534 8 293 0.0 3.2 0.03 0.61 0.61 91 1008.5
20260509210051 8 0 0.0 4.8 0.03 0.61 0.61 91 1008.6
20260509205531 8 323 1.6 4.8 0.03 0.61 0.61 91 1008.7
20260509205031 8 17 1.6 4.8 0.03 0.61 0.61 91 1008.9
20260509204557 8 0 0.0 6.4 0.03 0.61 0.61 91 1008.8
20260509204032 8 286 1.6 8.0 0.03 0.61 0.61 91 1009.0
20260509203532 8 340 1.6 8.0 0.03 0.61 0.61 89 1008.9
20260509203049 8 298 0.0 6.4 0.03 0.61 0.61 90 1009.1
20260509202531 8 281 1.6 6.4 0.03 0.61 0.61 90 1009.0
20260509202030 8 276 3.2 6.4 0.05 0.61 0.61 90 1009.1
20260509201544 8 289 1.6 6.4 0.05 0.61 0.61 93 1009.1
20260509201031 8 0 1.6 6.4 0.05 0.61 0.61 93 1009.3
20260509200531 8 271 1.6 4.8 0.03 0.58 0.58 92 1009.4
20260509200040 8 304 1.6 4.8 0.05 0.58 0.58 92 1009.3
20260509195532 8 0 1.6 4.8 0.05 0.58 0.58 93 1009.4
20260509195034 8 197 1.6 4.8 0.05 0.58 0.58 92 1009.5
20260509194546 8 288 0.0 4.8 0.05 0.58 0.58 92 1009.5
20260509194032 8 293 1.6 6.4 0.05 0.58 0.58 92 1009.5
20260509193530 8 234 1.6 8.0 0.05 0.58 0.58 93 1009.6
20260509193039 8 275 1.6 8.0 0.05 0.58 0.58 93 1009.7
20260509192531 8 178 0.0 4.8 0.05 0.58 0.58 93 1009.7
20260509192029 8 304 0.0 3.2 0.05 0.56 0.56 93 1009.7
20260509191543 8 289 0.0 3.2 0.05 0.56 0.56 93 1009.7
20260509191032 8 313 1.6 3.2 0.05 0.56 0.56 93 1009.7
20260509190531 8 304 0.0 3.2 0.05 0.56 0.56 93 1009.9
20260509190048 8 286 0.0 3.2 0.03 0.53 0.53 92 1009.7
20260509185531 8 242 0.0 3.2 0.05 0.53 0.53 92 1009.7
20260509185029 8 307 0.0 3.2 0.05 0.53 0.53 92 1009.8
20260509184540 8 0 0.0 3.2 0.05 0.53 0.53 92 1009.6
20260509184032 8 309 0.0 6.4 0.08 0.53 0.53 93 1009.8
20260509183533 8 303 1.6 6.4 0.08 0.53 0.53 92 1009.8
20260509183038 8 301 1.6 4.8 0.08 0.53 0.53 93 1009.9
20260509182531 8 0 0.0 4.8 0.10 0.53 0.53 93 1009.8
20260509182031 8 286 0.0 4.8 0.08 0.51 0.51 92 1009.9
20260509181539 8 227 0.0 4.8 0.08 0.51 0.51 92 1009.9
20260509181032 8 278 1.6 3.2 0.10 0.51 0.51 92 1009.9
20260509180531 8 218 0.0 3.2 0.10 0.51 0.51 93 1009.9
20260509180047 8 300 0.0 3.2 0.10 0.51 0.51 93 1009.9
20260509175531 8 259 0.0 3.2 0.08 0.53 0.48 93 1009.9
20260509175033 8 301 0.0 3.2 0.10 0.53 0.48 93 1009.7
20260509174550 8 301 0.0 3.2 0.10 0.53 0.48 93 1009.6
20260509174033 8 0 0.0 3.2 0.08 0.51 0.46 93 1009.6
20260509173530 8 83 0.0 3.2 0.08 0.51 0.46 93 1009.5
20260509173039 8 99 0.0 3.2 0.08 0.51 0.46 93 1009.4
20260509172534 8 0 0.0 3.2 0.08 0.48 0.43 94 1009.5
20260509172031 8 103 0.0 3.2 0.08 0.48 0.43 94 1009.3
20260509171548 8 300 0.0 3.2 0.08 0.48 0.43 94 1009.1
20260509171031 8 0 0.0 3.2 0.05 0.46 0.41 93 1009.1
20260509170531 8 0 0.0 3.2 0.08 0.46 0.41 93 1009.3
20260509170043 8 0 0.0 3.2 0.08 0.46 0.41 93 1009.4
20260509165531 8 290 0.0 3.2 0.10 0.48 0.41 93 1009.4
20260509165031 8 0 1.6 3.2 0.10 0.46 0.38 92 1009.5
20260509164543 8 128 0.0 4.8 0.13 0.46 0.38 92 1009.5
20260509164031 8 0 0.0 4.8 0.13 0.46 0.38 94 1009.4
20260509163533 8 0 0.0 3.2 0.15 0.46 0.38 94 1009.6
20260509163054 8 0 0.0 3.2 0.18 0.46 0.38 94 1009.6
20260509162528 8 57 0.0 4.8 0.15 0.43 0.36 93 1009.7
20260509162032 8 0 1.6 4.8 0.18 0.43 0.36 92 1009.7
20260509161542 8 0 0.0 3.2 0.20 0.43 0.36 93 1009.7
20260509161033 8 0 0.0 3.2 0.18 0.41 0.33 93 1009.8
20260509160531 8 0 0.0 3.2 0.18 0.41 0.33 93 1009.9
20260509160040 7 146 0.0 3.2 0.20 0.41 0.33 94 1009.8
20260509155531 7 0 0.0 3.2 0.15 0.36 0.28 94 1009.8
20260509155031 7 128 0.0 3.2 0.15 0.36 0.28 93 1009.9
20260509154543 7 0 0.0 3.2 0.13 0.33 0.25 94 1010.0
20260509154031 7 104 0.0 3.2 0.13 0.33 0.25 93 1009.9
20260509153531 7 49 1.6 3.2 0.10 0.30 0.23 94 1009.8
20260509153044 7 0 0.0 3.2 0.08 0.28 0.20 95 1009.9
20260509152531 7 0 0.0 3.2 0.05 0.25 0.18 95 1009.8
20260509152033 7 195 0.0 3.2 0.05 0.25 0.18 95 1009.9
20260509151545 7 194 0.0 1.6 0.03 0.23 0.15 95 1010.0
20260509151031 7 0 0.0 3.2 0.03 0.23 0.15 95 1010.1
20260509150531 7 0 0.0 3.2 0.03 0.23 0.15 95 1010.0
20260509150041 7 352 0.0 3.2 0.00 0.20 0.13 94 1010.4
20260509145531 7 0 0.0 1.6 0.00 0.20 0.13 94 1010.6
20260509145031 -17 0.0 0.0 0.00 0.20 0.13 1011.0
20260509144546 -17 0.0 0.0 0.00 0.20 0.13 1011.0
20260509144031 -17 0.0 0.0 0.00 0.20 0.13 1011.3
20260509143531 -17 0.0 0.0 0.00 0.20 0.13 1011.3
20260509143047 -17 0.0 0.0 0.00 0.20 0.13 1011.4
20260509142532 -17 0.0 0.0 0.00 0.20 0.13 1011.6
20260509142030 -17 0.0 0.0 0.00 0.20 0.13 1011.5
20260509141545 -17 0.0 0.0 0.00 0.20 0.13 1011.5
20260509141031 -17 0.0 0.0 0.00 0.20 0.13 1011.5
20260509140529 -17 0.0 0.0 0.00 0.20 0.13 1011.5
20260509140049 -17 0.0 0.0 0.00 0.20 0.13 1011.6
20260509135531 -17 0.0 0.0 0.00 0.20 0.13 1011.5
20260509135031 -17 0.0 0.0 0.00 0.20 0.13 1011.5
20260509134548 -17 0.0 0.0 0.00 0.20 0.13 1011.4
20260509134032 -17 0.0 0.0 0.00 0.20 0.13 1011.5
20260509133532 -17 0.0 0.0 0.00 0.20 0.13 1011.4
20260509133053 -17 0.0 0.0 0.00 0.20 0.13 1011.5
20260509132529 -17 0.0 0.0 0.00 0.20 0.13 1011.5
20260509132031 -17 0.0 0.0 0.00 0.20 0.13 1011.4
20260509131540 -17 0.0 0.0 0.00 0.20 0.13 1011.5
20260509131030 -17 0.0 0.0 0.00 0.20 0.13 1011.6
20260509130529 -17 0.0 0.0 0.00 0.20 0.13 1011.5
20260509130044 -17 0.0 0.0 0.00 0.20 0.13 1011.5
20260509125532 -17 0.0 0.0 0.00 0.20 0.13 1011.6
20260509125031 -17 0.0 0.0 0.00 0.20 0.13 1011.6
20260509124543 -17 0.0 0.0 0.00 0.20 0.13 1011.6
20260509124031 -17 0.0 0.0 0.00 0.20 0.13 1011.6
20260509123528 -17 0.0 0.0 0.00 0.20 0.13 1011.7
20260509123040 -17 0.0 0.0 0.00 0.20 0.13 1011.8
20260509122528 -17 0.0 0.0 0.00 0.20 0.13 1011.9
20260509122030 -17 0.0 0.0 0.00 0.20 0.13 1011.9
20260509121541 -17 0.0 0.0 0.00 0.20 0.13 1012.0
20260509121032 -17 0.0 0.0 0.00 0.20 0.13 1012.0
20260509120528 -17 0.0 0.0 0.00 0.20 0.13 1011.9
20260509120046 -17 0.0 0.0 0.00 0.20 0.13 1012.1
20260509115530 -17 0.0 0.0 0.00 0.20 0.13 1012.2
20260509115031 -17 0.0 0.0 0.00 0.20 0.13 1012.2
20260509114554 -17 0.0 0.0 0.00 0.20 0.13 1012.2
20260509114034 -17 0.0 0.0 0.00 0.20 0.13 1012.2
20260509113531 -17 0.0 0.0 0.00 0.20 0.13 1012.1
20260509113046 -17 0.0 0.0 0.00 0.20 0.13 1012.0
20260509112531 -17 0.0 0.0 0.00 0.20 0.13 1011.9
20260509112031 -17 0.0 0.0 0.00 0.20 0.13 1012.0
20260509111542 -17 0.0 0.0 0.00 0.20 0.13 1011.9
20260509111031 -17 0.0 0.0 0.00 0.20 0.13 1012.1
20260509110530 -17 0.0 0.0 0.00 0.20 0.13 1012.0
20260509110053 -17 0.0 0.0 0.00 0.20 0.13 1012.2
20260509105533 -17 0.0 0.0 0.00 0.20 0.13 1012.1
20260509105031 -17 0.0 0.0 0.00 0.20 0.13 1012.1
20260509104546 -17 0.0 0.0 0.00 0.20 0.13 1012.1